CW0641 Weather Reports


Display with metric or nautical units.
time (UTC)temp
F
wind
direction
speed
MPH
gust
MPH
rain 1hr
in
rain 24hr
in
rain mn
in
humidity
%
barometer
mb
20260508152901 71 302 4.0 13.0 0.00 0.00 0.00 59 1015.0
20260508152432 71 24 4.0 11.0 0.00 0.00 0.00 59 1015.0
20260508151413 72 338 5.0 12.0 0.00 0.00 0.00 58 1015.0
20260508150903 72 15 5.0 12.0 0.00 0.00 0.00 58 1014.9
20260508150412 72 323 6.0 13.0 0.00 0.00 0.00 57 1015.0
20260508145857 73 342 6.0 13.0 0.00 0.00 0.00 57 1015.0
20260508145413 73 348 4.0 13.0 0.00 0.00 0.00 57 1014.9
20260508144852 73 15 4.0 10.0 0.00 0.00 0.00 57 1014.8
20260508143845 73 5 5.0 11.0 0.00 0.00 0.00 57 1014.9
20260508143408 74 12 4.0 9.0 0.00 0.00 0.00 57 1014.8
20260508142406 74 16 5.0 11.0 0.00 0.00 0.00 56 1014.8
20260508141846 74 340 5.0 10.0 0.00 0.00 0.00 56 1014.8
20260508141403 75 338 5.0 11.0 0.00 0.00 0.00 56 1014.8
20260508140405 75 355 4.0 9.0 0.00 0.00 0.00 56 1014.7
20260508135843 75 347 4.0 9.0 0.00 0.00 0.00 56 1014.8
20260508135406 75 303 5.0 11.0 0.00 0.00 0.00 56 1014.8
20260508134832 75 0 5.0 11.0 0.00 0.00 0.00 56 1014.8
20260508133356 76 0 5.0 12.0 0.00 0.00 0.00 56 1014.9
20260508132352 76 5 5.0 10.0 0.00 0.00 0.00 56 1014.8
20260508131353 76 0 5.0 11.0 0.00 0.00 0.00 55 1014.8
20260508130840 76 40 5.0 11.0 0.00 0.00 0.00 55 1014.8
20260508130352 76 19 5.0 12.0 0.00 0.00 0.00 54 1014.9
20260508125831 77 346 5.0 12.0 0.00 0.00 0.00 54 1014.9
20260508125347 77 305 6.0 13.0 0.00 0.00 0.00 54 1015.0
20260508124826 77 355 6.0 13.0 0.00 0.00 0.00 53 1015.0
20260508124346 77 355 5.0 10.0 0.00 0.00 0.00 53 1015.0
20260508123821 77 351 5.0 11.0 0.00 0.00 0.00 53 1015.0
20260508123343 77 355 5.0 11.0 0.00 0.00 0.00 53 1015.2
20260508122821 77 310 4.0 10.0 0.00 0.00 0.00 52 1015.2
20260508122344 77 306 4.0 13.0 0.00 0.00 0.00 50 1015.2
20260508121823 78 5 4.0 13.0 0.00 0.00 0.00 50 1015.2
20260508121340 78 262 4.0 10.0 0.00 0.00 0.00 49 1015.1
20260508120813 78 332 4.0 11.0 0.00 0.00 0.00 49 1015.2
20260508115814 78 286 4.0 11.0 0.00 0.00 0.00 48 1015.3
20260508115337 78 263 4.0 11.0 0.00 0.00 0.00 45 1015.3
20260508114812 79 27 1.0 8.0 0.00 0.00 0.00 43 1015.3
20260508114336 79 275 0.0 5.0 0.00 0.00 0.00 39 1015.4
20260508113813 79 17 0.0 5.0 0.00 0.00 0.00 39 1015.5
20260508113332 79 318 0.0 3.0 0.00 0.00 0.00 37 1015.7
20260508112811 78 110 0.0 4.0 0.00 0.00 0.00 34 1015.7
20260508112329 78 181 0.0 4.0 0.00 0.00 0.00 34 1015.8
20260508111811 78 227 1.0 4.0 0.00 0.00 0.00 33 1015.8
20260508111329 78 119 2.0 8.0 0.00 0.00 0.00 33 1015.8
20260508110815 78 142 2.0 8.0 0.00 0.00 0.00 33 1015.8
20260508110327 78 137 1.0 5.0 0.00 0.00 0.00 32 1015.8
20260508105805 79 126 1.0 5.0 0.00 0.00 0.00 32 1015.8
20260508104324 78 187 1.0 5.0 0.00 0.00 0.00 31 1015.8
20260508103807 77 224 1.0 5.0 0.00 0.00 0.00 31 1015.9
20260508103324 77 219 1.0 5.0 0.00 0.00 0.00 31 1016.0
20260508102802 77 134 1.0 4.0 0.00 0.00 0.00 32 1015.9
20260508102319 76 152 1.0 5.0 0.00 0.00 0.00 31 1016.0
20260508101318 77 162 1.0 7.0 0.00 0.00 0.00 32 1016.1
20260508100800 76 217 1.0 5.0 0.00 0.00 0.00 31 1016.2
20260508100317 76 126 1.0 5.0 0.00 0.00 0.00 32 1016.2
20260508095759 76 126 1.0 5.0 0.00 0.00 0.00 31 1016.2
20260508095318 75 202 1.0 5.0 0.00 0.00 0.00 33 1016.1
20260508094752 75 203 1.0 6.0 0.00 0.00 0.00 32 1016.2
20260508094313 75 136 1.0 6.0 0.00 0.00 0.00 32 1016.3
20260508093754 75 134 1.0 6.0 0.00 0.00 0.00 33 1016.3
20260508093310 75 0 1.0 6.0 0.00 0.00 0.00 31 1016.4
20260508092313 75 101 2.0 5.0 0.00 0.00 0.00 33 1016.6
20260508091753 74 171 1.0 5.0 0.00 0.00 0.00 34 1016.5
20260508091304 74 144 1.0 5.0 0.00 0.00 0.00 34 1016.4
20260508090302 74 34 1.0 6.0 0.00 0.00 0.00 34 1016.5
20260508085753 73 5 2.0 7.0 0.00 0.00 0.00 33 1016.7
20260508085301 73 144 2.0 7.0 0.00 0.00 0.00 32 1016.7
20260508084752 73 134 1.0 6.0 0.00 0.00 0.00 33 1016.7
20260508084300 73 132 2.0 7.0 0.00 0.00 0.00 33 1016.6
20260508083746 73 154 2.0 7.0 0.00 0.00 0.00 34 1016.7
20260508083257 73 132 1.0 5.0 0.00 0.00 0.00 32 1016.7
20260508082743 73 157 1.0 5.0 0.00 0.00 0.00 32 1016.8
20260508082255 73 121 1.0 4.0 0.00 0.00 0.00 31 1016.8
20260508081744 73 130 1.0 6.0 0.00 0.00 0.00 39 1016.8
20260508081255 73 114 1.0 6.0 0.00 0.00 0.00 42 1016.8
20260508080742 72 186 1.0 4.0 0.00 0.00 0.00 43 1016.8
20260508080252 72 141 1.0 5.0 0.00 0.00 0.00 44 1016.8
20260508075741 72 130 1.0 7.0 0.00 0.00 0.00 44 1016.9
20260508074736 72 151 1.0 4.0 0.00 0.00 0.00 46 1016.9
20260508074251 71 136 1.0 4.0 0.00 0.00 0.00 46 1016.9
20260508073737 71 132 0.0 2.0 0.00 0.00 0.00 47 1016.9
20260508073250 71 260 0.0 4.0 0.00 0.00 0.00 50 1016.8
20260508072736 70 278 0.0 4.0 0.00 0.00 0.00 48 1016.9
20260508072244 70 205 1.0 3.0 0.00 0.00 0.00 47 1016.8
20260508071731 69 205 1.0 4.0 0.00 0.00 0.00 49 1016.8
20260508071242 69 155 1.0 5.0 0.00 0.00 0.00 48 1016.8
20260508065730 68 138 1.0 4.0 0.00 0.00 0.00 55 1016.5
20260508065242 68 142 0.0 4.0 0.00 0.00 0.00 56 1016.6
20260508064236 68 290 1.0 3.0 0.00 0.00 0.00 59 1016.6
20260508063729 67 277 1.0 3.0 0.00 0.00 0.00 59 1016.8
20260508063238 67 279 1.0 3.0 0.00 0.00 0.00 62 1016.8
20260508062731 66 279 1.0 3.0 0.00 0.00 0.00 62 1016.6
20260508062237 66 323 1.0 3.0 0.00 0.00 0.00 65 1016.8
20260508061728 65 323 0.0 3.0 0.00 0.00 0.00 67 1016.8
20260508060728 64 329 1.0 4.0 0.00 0.00 0.00 67 1016.8
20260508055722 63 0 1.0 4.0 0.00 0.00 0.00 70 1016.7
20260508055230 62 314 2.0 5.0 0.00 0.00 0.00 71 1016.6
20260508054720 61 345 2.0 5.0 0.00 0.00 0.00 71 1016.8
20260508054231 60 284 2.0 5.0 0.00 0.00 0.00 72 1016.7
20260508053718 60 355 2.0 5.0 0.00 0.00 0.00 74 1016.8
20260508053224 59 0 2.0 6.0 0.00 0.00 0.00 76 1016.8
20260508052712 59 323 2.0 6.0 0.00 0.00 0.00 79 1016.7
20260508052221 58 0 3.0 9.0 0.00 0.00 0.00 81 1016.7
20260508050711 57 301 1.0 5.0 0.00 0.00 0.00 89 1016.5
20260508050219 57 325 0.0 3.0 0.00 0.00 0.00 90 1016.5
20260508045711 57 336 0.0 2.0 0.00 0.00 0.00 91 1016.5
20260508045217 57 337 0.0 2.0 0.00 0.00 0.00 91 1016.5
20260508044707 56 338 0.0 2.0 0.00 0.00 0.00 91 1016.3
20260508044213 56 337 0.0 2.0 0.00 0.00 0.00 91 1016.4
20260508043704 56 338 0.0 2.0 0.00 0.00 0.00 91 1016.4
20260508042213 55 338 0.0 2.0 0.00 0.00 0.00 93 1016.3
20260508041659 54 338 0.0 2.0 0.00 0.00 0.00 92 1016.4
20260508041210 53 338 0.0 2.0 0.00 0.00 0.00 91 1016.3
20260508040700 53 338 0.0 2.0 0.00 0.00 0.00 92 1016.2
20260508040211 53 338 0.0 2.0 0.00 0.00 0.00 92 1016.2
20260508035700 52 338 0.0 2.0 0.00 0.00 0.00 92 1016.2
20260508035204 52 338 0.0 2.0 0.00 0.00 0.00 92 1016.2
20260508034701 51 338 0.0 1.0 0.00 0.00 0.00 92 1016.2
20260508034202 51 338 0.0 1.0 0.00 0.00 0.00 91 1016.1
20260508033650 51 338 0.0 0.0 0.00 0.00 0.00 91 1016.0
20260508033201 51 338 0.0 1.0 0.00 0.00 0.00 91 1016.0
20260508032645 51 338 0.0 2.0 0.00 0.00 0.00 91 1016.1
20260508032201 51 338 0.0 2.0 0.00 0.00 0.00 91 1015.9
20260508031645 51 338 0.0 0.0 0.00 0.00 0.00 92 1016.0
20260508031156 51 338 0.0 0.0 0.00 0.00 0.00 91 1016.0
20260508030642 51 338 0.0 1.0 0.00 0.00 0.00 91 1015.9
20260508030155 51 338 0.0 1.0 0.00 0.00 0.00 91 1015.8
20260508025634 51 338 0.0 1.0 0.00 0.00 0.00 91 1015.8
20260508025152 51 338 0.0 1.0 0.00 0.00 0.00 91 1015.7
20260508024631 51 338 0.0 1.0 0.00 0.00 0.00 91 1015.5
20260508024151 51 338 0.0 1.0 0.00 0.00 0.00 91 1015.5
20260508023626 51 338 0.0 2.0 0.00 0.00 0.00 91 1015.4
20260508022610 51 338 0.0 2.0 0.00 0.00 0.00 90 1015.2
20260508022147 51 338 0.0 1.0 0.00 0.00 0.00 91 1015.3
20260508021603 51 338 0.0 0.0 0.00 0.00 0.00 91 1015.1
20260508021143 51 338 0.0 0.0 0.00 0.00 0.00 91 1015.1
20260508020559 51 338 0.0 2.0 0.00 0.00 0.00 91 1015.2
20260508020140 51 338 0.0 2.0 0.00 0.00 0.00 90 1015.1
20260508015600 51 338 0.0 2.0 0.00 0.00 0.00 90 1015.2
20260508015141 51 338 0.0 2.0 0.00 0.00 0.00 90 1015.3
20260508014603 51 338 0.0 3.0 0.00 0.00 0.00 90 1015.2
20260508013556 52 338 1.0 3.0 0.00 0.00 0.00 90 1015.3
20260508013134 52 338 1.0 4.0 0.00 0.00 0.00 90 1015.3
20260508012558 52 338 1.0 4.0 0.00 0.00 0.00 90 1015.4
20260508012129 52 336 1.0 3.0 0.00 0.00 0.00 90 1015.5
20260508011556 52 336 2.0 4.0 0.00 0.00 0.00 90 1015.5
20260508011132 52 336 2.0 4.0 0.00 0.00 0.00 89 1015.7
20260508010552 52 0.0 0.0 0.00 0.00 0.00 89 1015.8
20260508010127 52 0.0 0.0 0.00 0.00 0.00 89 1015.8
20260508005553 52 0.0 0.0 0.00 0.00 0.00 89 1015.8
20260508005125 52 0.0 0.0 0.00 0.00 0.00 89 1015.9
20260508004546 52 0.0 0.0 0.00 0.00 0.00 89 1015.9
20260508003525 52 0.0 0.0 0.00 0.00 0.00 89 1016.0
20260508003125 52 0.0 0.0 0.00 0.00 0.00 89 1015.9
20260508002121 53 0.0 0.0 0.00 0.00 0.00 88 1015.9
20260508001511 53 0.0 0.0 0.00 0.00 0.00 88 1015.9
20260508001119 53 0.0 0.0 0.00 0.00 0.00 88 1015.9
20260508000508 53 0.0 0.0 0.00 0.00 0.00 88 1015.9
20260508000115 53 0.0 0.0 0.00 0.00 0.00 88 1016.0
20260507235114 53 0.0 0.0 0.00 0.00 0.00 87 1016.1
20260507234458 53 0.0 0.0 0.00 0.00 0.00 87 1016.2
20260507234112 53 0.0 0.0 0.00 0.00 0.00 87 1016.3
20260507233452 53 0.0 0.0 0.00 0.00 0.00 86 1016.3
20260507233110 54 0.0 0.0 0.00 0.00 0.00 86 1016.2
20260507232443 54 0.0 0.0 0.00 0.00 0.00 86 1016.2
20260507232108 54 0.0 0.0 0.00 0.00 0.00 85 1016.2
20260507231423 54 0.0 0.0 0.00 0.00 0.00 85 1016.1
20260507231104 54 0.0 0.0 0.00 0.00 0.00 84 1016.3
20260507230413 54 0.0 0.0 0.00 0.00 0.00 84 1016.4
20260507230101 55 0.0 0.0 0.00 0.00 0.00 83 1016.4
20260507225056 55 0.0 0.0 0.00 0.00 0.00 82 1016.5
20260507224401 55 0.0 0.0 0.00 0.00 0.00 82 1016.5
20260507224054 55 0.0 0.0 0.00 0.00 0.00 81 1016.5
20260507222306 56 0.0 0.0 0.00 0.00 0.00 78 1016.6
20260507222054 56 0.0 0.0 0.00 0.00 0.00 77 1016.7
20260507221306 56 279 4.0 7.0 0.00 0.00 0.00 76 1016.7
20260507220048 56 297 3.0 7.0 0.00 0.00 0.00 73 1016.5
20260507215044 57 287 3.0 7.0 0.00 0.00 0.00 71 1016.5
20260507214301 57 282 3.0 7.0 0.00 0.00 0.00 70 1016.5
20260507214046 57 282 3.0 7.0 0.00 0.00 0.00 69 1016.4
20260507213258 57 295 4.0 9.0 0.00 0.00 0.00 68 1016.4
20260507213041 57 295 3.0 9.0 0.00 0.00 0.00 67 1016.4
20260507212039 56 349 3.0 5.0 0.00 0.00 0.00 68 1016.3
20260507211250 56 322 3.0 5.0 0.00 0.00 0.00 68 1016.2
20260507210245 56 331 2.0 5.0 0.00 0.00 0.00 69 1016.2
20260507205245 56 318 1.0 3.0 0.00 0.00 0.00 69 1016.1
20260507205040 56 317 1.0 3.0 0.00 0.00 0.00 69 1016.1
20260507204242 56 316 0.0 3.0 0.00 0.00 0.00 70 1016.1
20260507204031 56 316 1.0 4.0 0.00 0.00 0.00 70 1016.0
20260507203238 56 316 2.0 4.0 0.00 0.00 0.00 70 1016.0
20260507203031 56 315 2.0 4.0 0.00 0.00 0.00 70 1015.9
20260507202230 56 297 1.0 4.0 0.00 0.00 0.00 70 1016.0
20260507202030 56 336 2.0 4.0 0.00 0.00 0.00 70 1015.9
20260507201219 57 336 2.0 4.0 0.00 0.00 0.00 70 1015.9
20260507201029 57 336 2.0 4.0 0.00 0.00 0.00 70 1015.9
20260507200213 57 336 1.0 4.0 0.00 0.00 0.00 70 1015.9
20260507195708 57 355 1.0 3.0 0.00 0.00 0.00 70 1016.0
20260507194657 58 355 2.0 4.0 0.00 0.00 0.00 70 1015.9
20260507194159 58 324 1.0 4.0 0.00 0.00 0.00 70 1015.8
20260507193650 58 324 2.0 4.0 0.00 0.00 0.00 70 1016.0
20260507192644 58 324 2.0 4.0 0.00 0.00 0.00 69 1015.9
20260507192146 58 324 2.0 4.0 0.00 0.00 0.00 69 1015.9
20260507191147 58 339 4.0 8.0 0.00 0.00 0.00 69 1015.9
20260507190644 58 5 5.0 9.0 0.00 0.00 0.00 69 1015.8
20260507190142 58 19 5.0 9.0 0.00 0.00 0.00 69 1015.8
20260507185644 58 338 4.0 9.0 0.00 0.00 0.00 69 1015.9
20260507185141 58 327 4.0 9.0 0.00 0.00 0.00 69 1015.9
20260507184639 58 338 3.0 8.0 0.00 0.00 0.00 70 1015.9
20260507184135 58 329 2.0 9.0 0.00 0.00 0.00 70 1016.0
20260507183635 58 355 3.0 9.0 0.00 0.00 0.00 70 1016.0
20260507183137 58 333 3.0 8.0 0.00 0.00 0.00 70 1016.0
20260507182131 58 281 2.0 6.0 0.00 0.00 0.00 71 1016.0
20260507181627 58 302 3.0 8.0 0.00 0.00 0.00 70 1016.0
20260507181130 59 350 4.0 10.0 0.00 0.00 0.00 70 1015.9
20260507175627 59 11 4.0 8.0 0.00 0.00 0.00 70 1015.7
20260507175127 59 336 4.0 8.0 0.00 0.00 0.00 70 1015.8
20260507174621 59 324 4.0 11.0 0.00 0.00 0.00 69 1015.8
20260507174122 59 300 5.0 11.0 0.00 0.00 0.00 69 1015.7
20260507173622 59 326 6.0 12.0 0.00 0.00 0.00 69 1015.7
20260507173121 60 341 7.0 12.0 0.00 0.00 0.00 70 1015.7
20260507172625 60 355 6.0 12.0 0.00 0.00 0.00 70 1015.7
20260507171120 60 355 5.0 10.0 0.00 0.00 0.00 70 1015.4
20260507170621 60 10 6.0 12.0 0.00 0.00 0.00 71 1015.3
20260507170114 60 350 6.0 12.0 0.00 0.00 0.00 71 1015.3
20260507165615 60 317 6.0 11.0 0.00 0.00 0.00 71 1015.3
20260507165115 61 323 6.0 14.0 0.00 0.00 0.00 71 1015.3
20260507164611 61 343 6.0 14.0 0.00 0.00 0.00 71 1015.2
20260507164108 61 0 7.0 14.0 0.00 0.00 0.00 71 1015.1
20260507163610 61 344 8.0 14.0 0.00 0.00 0.00 70 1015.1
20260507162608 62 346 6.0 12.0 0.00 0.00 0.00 70 1015.1
20260507160603 63 27 7.0 12.0 0.00 0.00 0.00 68 1015.0
20260507155101 64 331 9.0 15.0 0.00 0.00 0.00 67 1014.9
20260507154604 64 341 9.0 15.0 0.00 0.00 0.00 67 1015.0
20260507153604 65 331 7.0 15.0 0.00 0.00 0.00 66 1014.9